When you browse on this site, cookies collect data to enhance your experience and personalize the content and advertising you see.
Visit our Privacy Policy to learn more. By continuing to use the site, you agree to this use of cookies and data.
  • In Lithuania
  • List of Countries
  • For 7 days
  • Water Temperature
  • Weather Map
  • Weather Widgets
  • user-avatar
    Login

    Hourly Weather Katmandu

    Today, 13 November, Wednesday

    Time Temperature Precipitation Wind Pressure Humidity
    00:00 +14°C° 0 mm 1 mps 654 mmHg 87%
    01:00 +14°C° 0 mm 1 mps 653 mmHg 86%
    02:00 +14°C° 0 mm 1 mps 653 mmHg 84%
    03:00 +14°C° 0 mm 1 mps 653 mmHg 83%
    04:00 +14°C° 0 mm 1 mps 653 mmHg 82%
    05:00 +14°C° 0 mm 1 mps 653 mmHg 81%
    06:00 +14°C° 0 mm 1 mps 653 mmHg 80%
    07:00 +16°C° 0 mm 1 mps 654 mmHg 75%
    08:00 +19°C° 0 mm 1 mps 655 mmHg 71%
    09:00 +19°C° 0 mm 0 mps 656 mmHg 66%
    10:00 +22°C° 0 mm 1 mps 657 mmHg 62%
    11:00 +24°C° 0 mm 1 mps 657 mmHg 57%
    12:00 +25°C° 0 mm 1 mps 657 mmHg 53%
    13:00 +25°C° 0 mm 1 mps 656 mmHg 55%
    14:00 +24°C° 0 mm 1 mps 655 mmHg 57%
    15:00 +24°C° 0 mm 2 mps 655 mmHg 59%
    16:00 +22°C° 0 mm 1 mps 654 mmHg 69%
    17:00 +20°C° 0 mm 1 mps 654 mmHg 79%
    18:00 +16°C° 0 mm 0 mps 654 mmHg 89%
    19:00 +15°C° 0 mm 0 mps 654 mmHg 89%
    20:00 +15°C° 0 mm 0 mps 655 mmHg 89%
    21:00 +14°C° 0 mm 0 mps 655 mmHg 89%
    22:00 +14°C° 0 mm 0 mps 655 mmHg 88%
    23:00 +14°C° 0 mm 0 mps 655 mmHg 88%

    Tomorrow, 14 November, Thursday

    Time Temperature Precipitation Wind Pressure Humidity
    00:00 +14°C° 0 mm 0 mps 655 mmHg 87%
    01:00 +15°C° 0 mm 1 mps 655 mmHg 86%
    02:00 +15°C° 0 mm 1 mps 654 mmHg 85%
    03:00 +15°C° 0 mm 1 mps 654 mmHg 85%
    04:00 +15°C° 0 mm 1 mps 654 mmHg 84%
    05:00 +15°C° 0 mm 1 mps 654 mmHg 83%
    06:00 +15°C° 0 mm 1 mps 654 mmHg 83%
    07:00 +18°C° 0 mm 1 mps 655 mmHg 77%
    08:00 +17°C° 0 mm 0 mps 656 mmHg 72%
    09:00 +19°C° 0 mm 0 mps 657 mmHg 66%
    10:00 +22°C° 0 mm 1 mps 657 mmHg 61%
    11:00 +24°C° 0 mm 1 mps 657 mmHg 56%
    12:00 +25°C° 0 mm 1 mps 657 mmHg 50%
    13:00 +25°C° 0 mm 1 mps 657 mmHg 52%
    14:00 +25°C° 0 mm 2 mps 656 mmHg 53%
    15:00 +24°C° 0 mm 2 mps 656 mmHg 55%
    16:00 +22°C° 0 mm 1 mps 655 mmHg 64%
    17:00 +20°C° 0 mm 1 mps 655 mmHg 74%
    18:00 +16°C° 0 mm 0 mps 654 mmHg 83%
    19:00 +15°C° 0 mm 0 mps 654 mmHg 83%
    20:00 +15°C° 0 mm 0 mps 655 mmHg 83%
    21:00 +15°C° 0 mm 0 mps 655 mmHg 83%
    22:00 +15°C° 0 mm 1 mps 655 mmHg 82%
    23:00 +15°C° 0 mm 1 mps 654 mmHg 81%

    Day after tomorrow, 15 November, Friday

    Time Temperature Precipitation Wind Pressure Humidity
    00:00 +15°C° 0 mm 1 mps 654 mmHg 80%
    01:00 +15°C° 0 mm 1 mps 654 mmHg 78%
    02:00 +15°C° 0 mm 1 mps 653 mmHg 77%
    03:00 +15°C° 0 mm 1 mps 653 mmHg 75%
    04:00 +15°C° 0 mm 1 mps 653 mmHg 73%
    05:00 +14°C° 0 mm 1 mps 653 mmHg 72%
    06:00 +14°C° 0 mm 1 mps 653 mmHg 71%
    07:00 +15°C° 0 mm 0 mps 654 mmHg 66%
    08:00 +17°C° 0 mm 0 mps 655 mmHg 61%
    09:00 +20°C° 0 mm 0 mps 656 mmHg 56%
    10:00 +21°C° 0 mm 0 mps 656 mmHg 53%
    11:00 +24°C° 0 mm 1 mps 656 mmHg 50%
    12:00 +25°C° 0 mm 1 mps 656 mmHg 46%
    13:00 +25°C° 0 mm 1 mps 655 mmHg 48%
    14:00 +25°C° 0 mm 1 mps 655 mmHg 49%
    15:00 +25°C° 0 mm 2 mps 654 mmHg 51%
    16:00 +23°C° 0 mm 1 mps 654 mmHg 61%
    17:00 +20°C° 0 mm 1 mps 653 mmHg 71%
    18:00 +18°C° 0 mm 1 mps 652 mmHg 82%
    19:00 +16°C° 0 mm 1 mps 653 mmHg 82%
    20:00 +15°C° 0 mm 0 mps 653 mmHg 82%
    21:00 +15°C° 0 mm 0 mps 653 mmHg 82%
    22:00 +15°C° 0 mm 0 mps 653 mmHg 82%
    23:00 +15°C° 0 mm 0 mps 653 mmHg 81%

    16 November, Saturday

    Time Temperature Precipitation Wind Pressure Humidity
    00:00 +14°C° 0 mm 0 mps 653 mmHg 80%
    01:00 +14°C° 0 mm 0 mps 653 mmHg 79%
    02:00 +14°C° 0 mm 0 mps 652 mmHg 78%
    03:00 +14°C° 0 mm 0 mps 652 mmHg 77%
    04:00 +14°C° 0 mm 0 mps 652 mmHg 76%
    05:00 +14°C° 0 mm 0 mps 652 mmHg 76%
    06:00 +13°C° 0 mm 0 mps 652 mmHg 75%
    07:00 +15°C° 0 mm 0 mps 653 mmHg 70%
    08:00 +17°C° 0 mm 0 mps 654 mmHg 65%
    09:00 +19°C° 0 mm 0 mps 655 mmHg 60%
    10:00 +22°C° 0 mm 1 mps 655 mmHg 56%
    11:00 +23°C° 0 mm 1 mps 655 mmHg 53%
    12:00 +25°C° 0 mm 2 mps 655 mmHg 49%
    13:00 +25°C° 0 mm 2 mps 654 mmHg 50%
    14:00 +24°C° 0 mm 2 mps 653 mmHg 51%
    15:00 +24°C° 0 mm 2 mps 653 mmHg 52%
    16:00 +22°C° 0 mm 1 mps 652 mmHg 62%
    17:00 +20°C° 0 mm 1 mps 652 mmHg 73%
    18:00 +16°C° 0 mm 1 mps 651 mmHg 84%
    19:00 +16°C° 0 mm 1 mps 652 mmHg 84%
    20:00 +14°C° 0 mm 0 mps 652 mmHg 84%
    21:00 +14°C° 0 mm 0 mps 652 mmHg 84%
    22:00 +14°C° 0 mm 0 mps 652 mmHg 83%
    23:00 +13°C° 0 mm 0 mps 652 mmHg 83%

    17 November, Sunday

    Time Temperature Precipitation Wind Pressure Humidity
    00:00 +14°C° 0 mm 1 mps 652 mmHg 82%
    01:00 +14°C° 0 mm 1 mps 652 mmHg 81%
    02:00 +14°C° 0 mm 1 mps 651 mmHg 79%
    03:00 +14°C° 0 mm 1 mps 651 mmHg 78%
    04:00 +13°C° 0 mm 1 mps 651 mmHg 77%
    05:00 +13°C° 0 mm 1 mps 651 mmHg 75%
    06:00 +13°C° 0 mm 1 mps 651 mmHg 74%
    07:00 +14°C° 0 mm 0 mps 652 mmHg 68%
    08:00 +17°C° 0 mm 0 mps 654 mmHg 62%
    09:00 +19°C° 0 mm 0 mps 655 mmHg 56%
    10:00 +22°C° 0 mm 1 mps 655 mmHg 54%
    11:00 +23°C° 0 mm 1 mps 655 mmHg 51%
    12:00 +25°C° 0 mm 1 mps 654 mmHg 48%
    13:00 +25°C° 0 mm 2 mps 654 mmHg 49%
    14:00 +25°C° 0 mm 2 mps 653 mmHg 50%
    15:00 +24°C° 0 mm 2 mps 653 mmHg 51%
    16:00 +22°C° 0 mm 1 mps 652 mmHg 63%
    17:00 +20°C° 0 mm 1 mps 652 mmHg 75%
    18:00 +16°C° 0 mm 1 mps 651 mmHg 87%
    19:00 +16°C° 0 mm 1 mps 652 mmHg 87%
    20:00 +14°C° 0 mm 0 mps 652 mmHg 87%
    21:00 +14°C° 0 mm 0 mps 652 mmHg 88%
    22:00 +13°C° 0 mm 0 mps 652 mmHg 87%
    23:00 +14°C° 0 mm 1 mps 652 mmHg 86%

    18 November, Monday

    Time Temperature Precipitation Wind Pressure Humidity
    00:00 +14°C° 0 mm 1 mps 652 mmHg 85%
    01:00 +14°C° 0 mm 1 mps 651 mmHg 84%
    02:00 +14°C° 0 mm 1 mps 651 mmHg 82%
    03:00 +13°C° 0 mm 1 mps 651 mmHg 81%
    04:00 +13°C° 0 mm 1 mps 651 mmHg 80%
    05:00 +13°C° 0 mm 1 mps 651 mmHg 80%
    06:00 +13°C° 0 mm 1 mps 651 mmHg 79%
    07:00 +15°C° 0 mm 1 mps 652 mmHg 75%
    08:00 +16°C° 0 mm 1 mps 653 mmHg 70%
    09:00 +19°C° 0 mm 1 mps 654 mmHg 66%
    10:00 +20°C° 0 mm 1 mps 654 mmHg 61%
    11:00 +22°C° 0 mm 1 mps 654 mmHg 56%
    12:00 +23°C° 0 mm 1 mps 654 mmHg 51%
    13:00 +23°C° 0 mm 1 mps 654 mmHg 53%
    14:00 +23°C° 0 mm 2 mps 653 mmHg 55%
    15:00 +21°C° 0 mm 2 mps 652 mmHg 56%
    16:00 +20°C° 0 mm 1 mps 652 mmHg 67%
    17:00 +18°C° 0 mm 1 mps 652 mmHg 77%
    18:00 +15°C° 0 mm 1 mps 651 mmHg 87%
    19:00 +15°C° 0 mm 1 mps 651 mmHg 88%
    20:00 +13°C° 0 mm 0 mps 652 mmHg 89%
    21:00 +13°C° 0 mm 0 mps 652 mmHg 90%
    22:00 +13°C° 0 mm 0 mps 652 mmHg 89%
    23:00 +12°C° 0 mm 0 mps 652 mmHg 89%
    Show more